Wind_Speed
5 4 4 3 2 1 1 1 0 1 1 1 1 1 1 1 1 2 2 2 3 3 3 4 4 4 4 4 4 5 6 6 6 6 6 6 6 6 5 5 5 5 5
6 5 4 3 2 2 2 1 1 0 1 1 1 1 1 1 1 1 1 2 2 3 3 3 4 4 4 4 4 5 5 6 7 7 6 7 7 7 6 5 6 6 6
7 5 5 4 3 3 2 1 1 1 0 1 1 1 1 2 1 2 2 2 2 2 3 3 3 3 3 3 3 4 4 5 6 7 7 7 7 6 6 6 6 6 6
8 7 6 5 5 4 3 2 2 1 1 1 1 1 1 2 2 2 2 2 2 2 2 2 2 3 3 3 3 3 4 4 5 5 6 7 7 7 6 6 6 7 7
9 8 7 6 6 5 4 3 2 2 1 1 1 1 1 1 1 1 1 2 2 2 2 1 2 3 3 3 3 3 4 4 4 5 5 6 7 7 7 7 7 7 7
10 9 7 7 6 6 5 4 3 3 2 2 2 2 1 1 1 1 1 2 2 2 2 2 1 2 3 3 3 3 4 4 5 5 6 6 6 6 6 6 7 7 7
10 10 9 8 8 7 6 5 4 4 3 2 2 2 2 1 1 1 1 1 1 1 2 2 2 2 3 3 3 4 4 4 5 5 6 7 7 7 7 7 7 7 8
10 10 10 10 10 9 8 6 6 5 4 3 3 2 2 2 1 1 1 2 2 2 2 2 3 3 2 3 3 4 4 5 4 5 5 6 7 7 7 8 8 8 9
11 11 11 10 11 10 9 8 7 6 5 5 4 4 3 3 2 3 2 3 3 3 4 4 3 3 3 3 3 4 5 5 5 6 6 6 7 8 8 8 9 9 10
12 12 11 11 11 11 10 9 9 8 7 6 6 6 5 5 4 4 4 4 5 5 5 5 4 4 4 4 4 5 5 6 6 7 7 8 8 9 9 9 10 11 11
12 13 13 12 12 12 11 11 10 9 9 8 8 7 7 7 6 6 6 6 6 6 7 7 6 6 5 5 5 6 6 7 7 7 8 9 9 10 10 11 11 12 12
12 13 13 13 13 13 13 12 11 11 10 10 9 9 9 8 8 8 8 8 8 8 8 8 8 8 7 7 7 7 8 8 9 9 9 10 10 11 12 12 13 13 14
13 13 14 14 14 14 14 14 13 12 12 12 11 11 11 10 10 10 10 10 10 10 10 10 10 10 10 11 11 11 11 11 11 12 12 13 13 13 14 14 15 15 16
13 13 14 14 14 15 15 15 15 15 14 14 14 13 13 13 13 12 11 11 12 12 12 13 13 13 14 14 14 14 14 14 15 15 15 15 16 16 17 17 18 18 19
13 13 14 14 15 16 16 17 16 16 17 17 16 16 16 16 16 15 14 14 15 15 15 15 15 16 17 17 17 17 17 17 18 18 18 18 18 19 20 20 21 21 22
13 13 14 14 15 16 16 17 17 17 17 18 18 18 19 18 18 18 18 18 18 17 17 18 19 19 20 20 20 20 21 21 21 22 22 21 22 22 23 23 23 24 24
10 12 13 15 16 16 16 17 18 19 19 19 19 20 20 20 20 20 20 20 20 20 21 21 22 22 22 22 22 23 24 24 24 24 25 25 25 26 26 26 26 27 28
11 12 13 14 14 16 17 18 19 20 20 20 21 22 22 21 21 22 22 22 22 23 24 25 25 24 24 25 25 26 26 27 28 28 28 28 29 30 30 30 30 31 31
12 13 14 15 16 17 18 18 19 20 21 21 22 23 22 22 23 23 24 25 25 25 25 26 26 27 27 28 29 29 29 30 31 31 32 33 33 33 33 34 34 35 35
11 13 14 15 17 18 18 18 20 21 22 22 22 23 24 24 24 25 25 26 26 26 26 27 27 28 30 30 31 32 33 33 34 35 35 36 36 36 36 36 37 37 38
12 13 14 16 17 18 18 19 20 21 22 23 22 23 24 25 26 26 26 26 27 27 28 28 28 29 30 31 32 32 33 35 36 37 37 37 37 38 39 39 39 40 41
13 14 14 16 17 17 18 20 21 22 22 23 23 23 24 25 26 27 27 27 28 28 29 30 30 30 31 32 33 34 35 36 37 37 38 38 38 39 40 40 41 42 43
15 15 16 18 18 19 20 20 21 22 23 23 23 23 24 25 26 27 27 28 28 29 30 30 31 31 32 33 34 35 35 36 37 38 39 40 40 41 42 43 43 44 45
16 16 16 16 17 18 20 20 21 22 23 23 23 23 24 26 26 27 28 28 29 30 31 32 33 34 34 34 34 35 37 37 38 39 40 41 42 43 44 45 46 46 46
17 17 17 18 19 19 20 21 22 22 23 24 25 26 27 27 28 29 29 30 31 31 32 33 33 34 34 35 35 36 37 37 39 40 41 42 43 44 45 46 47 48 49
19 19 19 19 20 21 22 22 24 24 25 25 26 27 28 29 30 30 30 31 31 32 33 34 34 34 35 36 36 37 37 37 38 40 41 42 43 44 45 47 48 49 50
Wind_Direction
227 231 239 249 230 220 216 215 127 105 85 72 104 128 129 119 155 166 171 183 187 195 203 208 213 215 214 216 214 214 217 216 217 219 222 224 225 225 229 238 244 248 249
215 210 216 220 216 199 191 211 155 95 93 85 107 118 114 116 145 160 173 183 182 185 190 203 212 216 214 218 217 215 218 217 218 219 224 227 228 230 232 239 246 248 250
204 202 201 201 198 189 177 185 195 183 132 125 130 136 119 118 118 137 151 161 167 178 185 193 204 206 208 214 214 215 219 219 220 225 228 227 224 225 232 243 249 250 256
202 203 199 196 189 186 183 184 190 189 171 157 147 134 113 114 118 119 139 159 159 167 182 199 204 199 201 212 218 215 214 215 218 222 223 223 224 231 240 247 251 252 257
202 201 199 196 189 192 193 190 189 188 178 166 152 131 115 115 127 127 132 141 150 158 167 178 190 196 202 209 214 213 217 218 220 220 221 224 231 239 247 253 254 253 254
203 201 201 200 196 198 200 200 197 192 184 174 166 151 141 131 128 127 136 153 152 164 176 175 185 196 199 205 210 209 215 217 222 225 227 229 234 241 249 256 256 252 253
203 205 207 206 203 203 207 207 205 206 200 195 184 175 160 170 155 133 138 161 166 188 198 202 221 217 213 220 222 220 220 221 226 230 232 234 237 243 248 254 257 255 255
203 201 205 208 208 208 211 212 212 213 215 211 205 201 196 213 240 256 247 238 235 243 226 227 240 232 226 232 234 233 228 227 235 236 237 239 243 249 253 258 262 262 261
209 205 207 210 210 211 213 215 216 218 221 219 217 224 223 226 242 246 257 254 256 248 236 234 243 238 229 233 239 239 238 240 244 244 248 249 251 256 260 262 266 268 268
216 211 211 215 216 217 218 220 221 223 226 227 227 230 236 241 243 247 255 259 256 255 246 243 245 245 243 247 249 246 246 248 253 255 258 259 260 263 266 268 271 273 273
219 216 216 219 221 221 223 226 226 229 231 233 237 239 241 246 249 250 253 255 255 256 249 246 246 250 259 258 257 257 256 257 260 263 265 266 267 269 271 272 274 275 274
219 221 221 222 223 223 226 229 232 234 236 239 244 248 249 252 252 253 254 255 254 254 251 251 251 252 258 261 262 263 263 265 267 268 272 274 274 275 275 275 275 275 275
223 222 223 224 225 227 228 232 236 240 242 244 248 251 253 257 258 259 261 260 261 260 259 260 257 258 262 264 265 265 266 268 269 271 273 274 275 276 278 278 277 278 279
225 225 228 228 231 231 234 237 242 247 247 249 252 255 256 257 259 261 263 264 267 266 267 266 264 264 264 265 265 265 267 269 271 272 274 275 276 276 277 278 278 278 279
230 232 232 232 233 235 238 241 244 248 251 253 255 257 258 259 261 261 265 267 266 266 269 269 267 268 268 267 266 267 269 270 272 273 275 276 277 277 278 278 278 278 278
234 234 235 236 238 240 245 247 247 252 256 258 259 261 263 265 264 265 268 268 268 268 269 269 268 270 270 268 267 267 268 269 271 272 274 276 277 278 278 279 278 278 277
241 241 241 240 243 246 250 251 251 255 260 262 263 264 265 267 264 267 270 271 270 270 270 270 270 269 270 270 270 269 269 270 271 273 274 276 276 277 278 278 278 278 278
251 251 248 246 248 251 254 254 254 258 261 262 263 265 266 265 265 268 271 273 273 273 273 272 271 270 269 269 270 270 270 270 272 273 275 276 276 277 276 276 277 278 278
259 256 255 250 251 255 258 257 257 260 262 263 264 264 265 267 268 269 271 273 274 274 275 276 273 272 271 271 271 271 271 273 272 273 275 277 277 277 276 275 276 277 278
263 260 258 253 253 259 262 260 261 262 263 264 265 264 265 266 268 269 272 274 274 275 276 277 276 275 275 274 273 273 273 273 274 275 276 277 276 276 275 274 276 277 278
272 267 263 259 260 262 265 265 265 264 265 266 268 269 268 269 269 270 272 274 274 275 276 277 277 278 278 277 276 275 274 274 275 276 276 276 276 276 275 275 276 277 277
276 272 269 264 265 266 267 268 268 269 268 268 269 272 271 271 272 272 273 274 275 276 277 278 279 281 281 280 276 275 275 275 276 276 276 276 277 276 276 275 276 276 277
277 277 274 270 269 269 269 271 270 270 271 271 271 272 273 274 274 274 273 273 274 275 277 279 280 282 283 282 280 278 277 278 278 277 276 276 276 277 276 276 276 277 277
281 277 277 275 272 274 275 274 274 274 274 274 273 274 275 274 276 277 277 276 277 278 278 279 281 281 282 282 282 281 278 277 277 278 277 276 277 277 276 276 277 278 278
284 281 278 278 277 277 278 278 278 279 279 278 276 275 277 277 278 278 278 279 279 279 279 279 278 279 280 281 282 282 281 280 280 280 280 279 279 280 280 280 280 280 279
282 283 283 282 281 279 278 279 279 280 281 280 279 277 278 279 280 279 279 279 279 280 280 280 279 280 282 282 282 282 282 282 282 282 282 282 283 283 282 282 281 281 281
Height
5899 5900 5901 5901 5901 5901 5901 5901 5901 5901 5900 5900 5899 5899 5899 5899 5899 5899 5898 5898 5899 5899 5899 5900 5900 5900 5900 5900 5900 5900 5900 5901 5901 5902 5902 5902 5903 5903 5903 5903 5903 5903 5903
5898 5899 5900 5901 5901 5901 5901 5901 5901 5901 5900 5900 5900 5899 5899 5899 5899 5899 5898 5898 5898 5898 5899 5899 5899 5899 5899 5899 5899 5899 5900 5900 5900 5901 5901 5901 5902 5902 5902 5902 5902 5902 5902
5897 5899 5900 5900 5901 5901 5901 5901 5901 5901 5901 5900 5900 5900 5899 5899 5899 5899 5899 5898 5898 5898 5898 5898 5898 5898 5898 5898 5899 5899 5899 5899 5899 5900 5900 5900 5900 5901 5901 5901 5901 5901 5901
5896 5897 5899 5900 5900 5901 5901 5901 5901 5901 5901 5901 5901 5900 5900 5899 5899 5899 5899 5899 5898 5898 5898 5898 5898 5898 5898 5898 5898 5898 5898 5898 5898 5899 5899 5899 5899 5900 5900 5900 5900 5900 5900
5895 5896 5898 5899 5900 5900 5901 5901 5901 5901 5901 5901 5901 5901 5900 5900 5900 5899 5899 5899 5899 5898 5898 5898 5898 5898 5898 5898 5898 5898 5898 5898 5898 5898 5898 5898 5898 5899 5899 5898 5898 5898 5898
5894 5895 5897 5898 5899 5900 5900 5901 5901 5901 5901 5901 5901 5901 5901 5901 5900 5900 5899 5899 5899 5898 5898 5898 5898 5898 5898 5897 5897 5897 5897 5897 5897 5897 5897 5897 5897 5897 5897 5897 5897 5897 5897
5892 5894 5896 5897 5898 5899 5900 5900 5901 5901 5901 5901 5901 5901 5901 5901 5900 5900 5900 5899 5899 5899 5898 5898 5898 5898 5897 5897 5897 5897 5897 5897 5896 5896 5896 5896 5896 5896 5896 5896 5895 5895 5895
5891 5892 5894 5896 5897 5898 5899 5900 5900 5901 5901 5901 5901 5901 5901 5901 5901 5900 5900 5899 5899 5898 5898 5898 5898 5897 5897 5897 5896 5896 5896 5896 5896 5896 5895 5895 5895 5895 5895 5895 5894 5894 5893
5889 5891 5892 5894 5895 5896 5897 5898 5899 5900 5900 5900 5900 5901 5901 5901 5900 5900 5900 5899 5899 5898 5898 5898 5897 5897 5896 5896 5896 5896 5895 5895 5895 5895 5894 5894 5894 5894 5893 5893 5892 5892 5891
5887 5889 5890 5892 5893 5895 5896 5897 5898 5898 5899 5899 5900 5900 5900 5900 5900 5900 5899 5899 5898 5898 5897 5897 5897 5896 5896 5895 5895 5895 5894 5894 5894 5894 5893 5893 5892 5892 5892 5891 5890 5890 5889
5885 5887 5888 5890 5891 5893 5894 5895 5896 5897 5898 5898 5898 5899 5899 5899 5899 5898 5898 5898 5897 5897 5897 5896 5896 5896 5895 5894 5894 5893 5893 5893 5893 5892 5892 5891 5890 5890 5889 5889 5888 5887 5887
5883 5884 5886 5888 5889 5890 5892 5893 5894 5895 5896 5896 5896 5897 5897 5897 5897 5897 5896 5896 5895 5895 5895 5895 5894 5894 5893 5893 5892 5892 5892 5891 5891 5890 5890 5889 5888 5888 5887 5886 5885 5884 5883
5880 5882 5883 5885 5886 5887 5889 5891 5892 5892 5893 5894 5894 5894 5894 5895 5894 5894 5894 5894 5893 5893 5893 5893 5892 5892 5891 5891 5890 5890 5889 5889 5888 5888 5887 5886 5885 5884 5884 5883 5882 5881 5880
5878 5879 5881 5882 5883 5885 5886 5888 5888 5889 5890 5891 5891 5891 5891 5891 5891 5891 5891 5891 5891 5890 5890 5890 5889 5889 5888 5888 5887 5886 5886 5885 5885 5884 5883 5882 5881 5881 5880 5879 5878 5877 5875
5875 5877 5878 5879 5880 5881 5883 5884 5885 5885 5886 5887 5887 5888 5888 5888 5888 5888 5888 5888 5888 5887 5887 5886 5886 5885 5884 5884 5883 5882 5882 5881 5880 5880 5879 5878 5877 5876 5875 5874 5873 5871 5870
5873 5874 5875 5876 5877 5878 5879 5879 5881 5881 5882 5883 5883 5883 5883 5884 5884 5884 5884 5883 5883 5883 5882 5882 5881 5881 5880 5879 5878 5878 5877 5876 5875 5874 5873 5872 5871 5870 5869 5868 5867 5865 5864
5870 5871 5872 5873 5874 5875 5875 5875 5876 5877 5878 5878 5878 5879 5879 5878 5879 5879 5879 5878 5878 5878 5877 5877 5876 5876 5875 5874 5873 5872 5871 5870 5869 5868 5867 5866 5865 5864 5863 5861 5860 5858 5857
5868 5868 5869 5870 5870 5871 5871 5871 5872 5872 5873 5873 5873 5873 5873 5873 5873 5873 5873 5872 5872 5872 5871 5870 5870 5869 5869 5868 5867 5865 5864 5863 5862 5861 5860 5859 5858 5856 5855 5854 5852 5850 5849
5865 5865 5866 5866 5867 5867 5867 5867 5867 5868 5868 5868 5868 5867 5867 5867 5867 5867 5866 5866 5865 5865 5864 5863 5862 5862 5861 5860 5859 5858 5857 5856 5854 5853 5852 5851 5849 5848 5846 5845 5843 5841 5840
5862 5862 5862 5862 5862 5863 5862 5862 5862 5862 5862 5862 5862 5861 5861 5861 5860 5860 5859 5859 5858 5857 5857 5856 5855 5854 5853 5852 5851 5850 5849 5847 5846 5845 5843 5842 5840 5838 5837 5835 5833 5831 5830
5859 5858 5858 5858 5858 5858 5858 5858 5857 5857 5856 5856 5855 5855 5854 5854 5853 5853 5852 5851 5850 5850 5849 5848 5847 5846 5845 5843 5842 5841 5839 5838 5836 5835 5833 5832 5830 5828 5826 5824 5823 5821 5819
5855 5854 5854 5853 5853 5853 5853 5852 5851 5851 5850 5849 5849 5849 5848 5848 5847 5846 5845 5844 5843 5842 5841 5840 5839 5838 5836 5834 5833 5831 5830 5828 5826 5825 5822 5821 5819 5817 5815 5813 5812 5810 5808
5850 5850 5849 5849 5848 5848 5847 5846 5845 5845 5844 5843 5843 5842 5841 5841 5840 5838 5837 5836 5836 5834 5833 5832 5831 5829 5827 5825 5823 5821 5819 5818 5816 5814 5812 5810 5808 5806 5804 5802 5800 5798 5795
5846 5845 5845 5844 5843 5842 5841 5840 5839 5839 5838 5837 5836 5835 5834 5833 5832 5831 5830 5829 5828 5826 5825 5823 5822 5820 5818 5816 5813 5812 5809 5807 5805 5803 5801 5799 5797 5794 5791 5789 5787 5785 5782
5841 5840 5839 5839 5838 5837 5836 5834 5834 5832 5831 5830 5829 5829 5827 5826 5825 5823 5822 5821 5819 5818 5816 5814 5812 5810 5808 5806 5804 5802 5799 5797 5794 5792 5790 5788 5785 5782 5779 5776 5773 5771 5768
5836 5835 5834 5833 5832 5831 5830 5828 5827 5826 5824 5823 5822 5821 5820 5818 5816 5815 5813 5812 5810 5809 5807 5805 5803 5801 5798 5796 5794 5791 5789 5786 5784 5781 5778 5776 5773 5770 5766 5763 5760 5757 5754